Finlandia — OJPP — position and weather

sailwx.info

Track history (hours):
 
Tides and Currents Weather Stations Pressure Air Temp Water Temp Dewpoint Dewpoint Depression Visibility Wind Speed Wind Dir Waves Ship Positions

Finlandia

Last reported at 2014-Nov-26 18:25 UTC. Time now 2014-Nov-26 18:44 UTC.
Position N 59°44' E 024°47'.

Length 175 m; draft 7 m.

Type: Passenger vessel. MMSI: 230628000.

Date/timePositionNaut miles runAvg speedWind from/ knotsBaromVisibWave heightAir tempDewpointWater temp
2014-Nov-26 18:25N 59°44' E 024°47'1820.3
2014-Nov-26 17:33N 59°27' E 024°46'0 0.3
2014-Nov-26 16:33N 59°27' E 024°46'1111.1
2014-Nov-26 15:33N 59°37' E 024°40'32 9.8
2014-Nov-26 12:16N 60°09' E 024°55'2119.0
2014-Nov-26 11:11N 59°48' E 024°46'1320.2
2014-Nov-26 10:33N 59°36' E 024°41'9 9.5
2014-Nov-26 09:33N 59°27' E 024°46'3 3.4
2014-Nov-26 08:33N 59°30' E 024°45'3919.1
2014-Nov-26 06:32N 60°08' E 024°54'25 2.0
2014-Nov-25 18:24N 59°44' E 024°47'1720.2
2014-Nov-25 17:33N 59°27' E 024°47'0 0.5
2014-Nov-25 16:33N 59°27' E 024°46'1111.0
2014-Nov-25 15:33N 59°37' E 024°40'32 9.6
2014-Nov-25 12:13N 60°09' E 024°54'2119.3
2014-Nov-25 11:08N 59°48' E 024°46'1220.1
2014-Nov-25 10:33N 59°37' E 024°41'1010.2
2014-Nov-25 09:33N 59°27' E 024°46'4 4.4
2014-Nov-25 08:34N 59°31' E 024°44'15 1.1
2014-Nov-24 18:33N 59°45' E 024°49'1918.9
2014-Nov-24 17:33N 59°27' E 024°46'0 0.0
2014-Nov-24 16:33N 59°27' E 024°46'1111.0
2014-Nov-24 15:34N 59°37' E 024°40'32 9.8
2014-Nov-24 12:16N 60°09' E 024°55'3319.2
2014-Nov-24 10:33N 59°36' E 024°41'1010.0
2014-Nov-24 09:33N 59°27' E 024°46'4 4.1
2014-Nov-24 08:34N 59°31' E 024°44'1919.0
2014-Nov-24 07:33N 59°50' E 024°47'5 0.4
2014-Nov-23 18:31N 59°45' E 024°48'1818.4
2014-Nov-23 17:33N 59°27' E 024°46'0 0.3
2014-Nov-23 16:33N 59°27' E 024°46'4 4.2
2014-Nov-23 15:33N 59°31' E 024°44'1919.1
2014-Nov-23 14:34N 59°50' E 024°50'1919.0
2014-Nov-23 13:33N 60°09' E 024°54'0 0.2
2014-Nov-23 12:13N 60°09' E 024°55'3219.3
2014-Nov-23 10:33N 59°37' E 024°42'1110.3
2014-Nov-23 09:31N 59°27' E 024°46'3 3.6
2014-Nov-23 08:33N 59°30' E 024°44'1919.2
2014-Nov-23 07:33N 59°49' E 024°47'2019.2
2014-Nov-23 06:32N 60°09' E 024°54'25 2.0
2014-Nov-22 18:18N 59°44' E 024°47'1621.3
2014-Nov-22 17:33N 59°28' E 024°46'1 1.4
2014-Nov-22 16:33N 59°27' E 024°46'1111.2
2014-Nov-22 15:33N 59°37' E 024°40'1 0.1
2014-Nov-22 10:33N 59°38' E 024°41'1111.4
2014-Nov-22 09:33N 59°27' E 024°46'4 4.3
2014-Nov-22 08:34N 59°31' E 024°44'17 1.2
2014-Nov-21 18:27N 59°48' E 024°46'1921.6
2014-Nov-21 17:34N 59°28' E 024°46'1 1.2
2014-Nov-21 16:27N 59°27' E 024°46'1112.2
2014-Nov-21 15:33N 59°37' E 024°40'2 0.3
2014-Nov-21 10:33N 59°38' E 024°42'1111.1
2014-Nov-21 09:32N 59°27' E 024°46'5 5.1
2014-Nov-21 08:33N 59°32' E 024°43'2119.5
2014-Nov-21 07:29N 59°52' E 024°49'4 0.3
2014-Nov-20 18:33N 59°49' E 024°46'2221.8
2014-Nov-20 17:34N 59°27' E 024°46'0 0.3
2014-Nov-20 16:31N 59°27' E 024°46'1111.5
2014-Nov-20 15:33N 59°37' E 024°40'1816.9
2014-Nov-20 14:30N 59°54' E 024°52'1515.6
2014-Nov-20 13:34N 60°09' E 024°55'0 0.2
2014-Nov-20 12:14N 60°09' E 024°55'1317.8
2014-Nov-20 11:29N 59°56' E 024°53'1819.6
2014-Nov-20 10:33N 59°38' E 024°42'1111.5
2014-Nov-20 09:33N 59°27' E 024°46'4 3.5
2014-Nov-20 08:33N 59°30' E 024°44'2120.4
2014-Nov-20 07:33N 59°51' E 024°50'8 0.6
2014-Nov-19 18:20N 59°43' E 024°47'1621.0
2014-Nov-19 17:34N 59°27' E 024°46'0 0.4
2014-Nov-19 16:31N 59°27' E 024°46'1212.1
2014-Nov-19 15:33N 59°38' E 024°40'1816.1
2014-Nov-19 14:28N 59°54' E 024°52'13 5.7
2014-Nov-19 12:09N 60°08' E 024°54'3119.7
2014-Nov-19 10:34N 59°37' E 024°41'1110.0
2014-Nov-19 09:30N 59°27' E 024°46'3 3.3
2014-Nov-19 08:33N 59°30' E 024°45'2019.6
2014-Nov-19 07:33N 59°49' E 024°46'2019.4
2014-Nov-19 06:33N 60°08' E 024°54'5 0.4
2014-Nov-18 19:13N 60°04' E 024°54'1623.8
2014-Nov-18 18:33N 59°48' E 024°49'2121.4
2014-Nov-18 17:33N 59°27' E 024°46'0 0.3
2014-Nov-18 16:31N 59°27' E 024°46'1111.4
2014-Nov-18 15:33N 59°37' E 024°40'1716.6
2014-Nov-18 14:33N 59°53' E 024°52'1615.4
2014-Nov-18 13:30N 60°09' E 024°55'0 0.0
2014-Nov-18 12:19N 60°09' E 024°55'3419.7
2014-Nov-18 10:33N 59°35' E 024°42'8 8.4
2014-Nov-18 09:33N 59°27' E 024°46'3 3.3
2014-Nov-18 08:33N 59°30' E 024°45'1818.5
2014-Nov-18 07:34N 59°48' E 024°50'4 0.3
2014-Nov-17 18:33N 59°46' E 024°45'1919.5
2014-Nov-17 17:33N 59°27' E 024°46'0 0.0
2014-Nov-17 16:32N 59°27' E 024°46'1111.2
2014-Nov-17 15:33N 59°37' E 024°40'1817.3
2014-Nov-17 14:30N 59°54' E 024°52'13 5.4
2014-Nov-17 12:07N 60°07' E 024°54'3321.0
2014-Nov-17 10:34N 59°36' E 024°41'9 9.1
2014-Nov-17 09:33N 59°27' E 024°46'2 2.0
2014-Nov-17 08:33N 59°29' E 024°46'2019.6
2014-Nov-17 07:33N 59°48' E 024°45'13 1.0
2014-Nov-16 19:04N 60°00' E 024°54'1625.3
2014-Nov-16 18:26N 59°44' E 024°47'  
Track history (hours):
 
Tides and Currents Weather Stations Pressure Air Temp Water Temp Dewpoint Dewpoint Depression Visibility Wind Speed Wind Dir Waves Ship Positions

Finlandia

Last reported at 2014-Nov-26 18:25 UTC. Time now 2014-Nov-26 18:44 UTC.
Position N 59°44' E 024°47'.

Length 175 m; draft 7 m.

Type: Passenger vessel. MMSI: 230628000.

Date/timePositionNaut miles runAvg speedWind from/ knotsBaromVisibWave heightAir tempDewpointWater temp
2014-Nov-26 18:25N 59°44' E 024°47'1820.3
2014-Nov-26 17:33N 59°27' E 024°46'0 0.3
2014-Nov-26 16:33N 59°27' E 024°46'1111.1
2014-Nov-26 15:33N 59°37' E 024°40'32 9.8
2014-Nov-26 12:16N 60°09' E 024°55'2119.0
2014-Nov-26 11:11N 59°48' E 024°46'1320.2
2014-Nov-26 10:33N 59°36' E 024°41'9 9.5
2014-Nov-26 09:33N 59°27' E 024°46'3 3.4
2014-Nov-26 08:33N 59°30' E 024°45'3919.1
2014-Nov-26 06:32N 60°08' E 024°54'25 2.0
2014-Nov-25 18:24N 59°44' E 024°47'1720.2
2014-Nov-25 17:33N 59°27' E 024°47'0 0.5
2014-Nov-25 16:33N 59°27' E 024°46'1111.0
2014-Nov-25 15:33N 59°37' E 024°40'32 9.6
2014-Nov-25 12:13N 60°09' E 024°54'2119.3
2014-Nov-25 11:08N 59°48' E 024°46'1220.1
2014-Nov-25 10:33N 59°37' E 024°41'1010.2
2014-Nov-25 09:33N 59°27' E 024°46'4 4.4
2014-Nov-25 08:34N 59°31' E 024°44'15 1.1
2014-Nov-24 18:33N 59°45' E 024°49'1918.9
2014-Nov-24 17:33N 59°27' E 024°46'0 0.0
2014-Nov-24 16:33N 59°27' E 024°46'1111.0
2014-Nov-24 15:34N 59°37' E 024°40'32 9.8
2014-Nov-24 12:16N 60°09' E 024°55'3319.2
2014-Nov-24 10:33N 59°36' E 024°41'1010.0
2014-Nov-24 09:33N 59°27' E 024°46'4 4.1
2014-Nov-24 08:34N 59°31' E 024°44'1919.0
2014-Nov-24 07:33N 59°50' E 024°47'5 0.4
2014-Nov-23 18:31N 59°45' E 024°48'1818.4
2014-Nov-23 17:33N 59°27' E 024°46'0 0.3
2014-Nov-23 16:33N 59°27' E 024°46'4 4.2
2014-Nov-23 15:33N 59°31' E 024°44'1919.1
2014-Nov-23 14:34N 59°50' E 024°50'1919.0
2014-Nov-23 13:33N 60°09' E 024°54'0 0.2
2014-Nov-23 12:13N 60°09' E 024°55'3219.3
2014-Nov-23 10:33N 59°37' E 024°42'1110.3
2014-Nov-23 09:31N 59°27' E 024°46'3 3.6
2014-Nov-23 08:33N 59°30' E 024°44'1919.2
2014-Nov-23 07:33N 59°49' E 024°47'2019.2
2014-Nov-23 06:32N 60°09' E 024°54'25 2.0
2014-Nov-22 18:18N 59°44' E 024°47'1621.3
2014-Nov-22 17:33N 59°28' E 024°46'1 1.4
2014-Nov-22 16:33N 59°27' E 024°46'1111.2
2014-Nov-22 15:33N 59°37' E 024°40'1 0.1
2014-Nov-22 10:33N 59°38' E 024°41'1111.4
2014-Nov-22 09:33N 59°27' E 024°46'4 4.3
2014-Nov-22 08:34N 59°31' E 024°44'17 1.2
2014-Nov-21 18:27N 59°48' E 024°46'1921.6
2014-Nov-21 17:34N 59°28' E 024°46'1 1.2
2014-Nov-21 16:27N 59°27' E 024°46'1112.2
2014-Nov-21 15:33N 59°37' E 024°40'2 0.3
2014-Nov-21 10:33N 59°38' E 024°42'1111.1
2014-Nov-21 09:32N 59°27' E 024°46'5 5.1
2014-Nov-21 08:33N 59°32' E 024°43'2119.5
2014-Nov-21 07:29N 59°52' E 024°49'4 0.3
2014-Nov-20 18:33N 59°49' E 024°46'2221.8
2014-Nov-20 17:34N 59°27' E 024°46'0 0.3
2014-Nov-20 16:31N 59°27' E 024°46'1111.5
2014-Nov-20 15:33N 59°37' E 024°40'1816.9
2014-Nov-20 14:30N 59°54' E 024°52'1515.6
2014-Nov-20 13:34N 60°09' E 024°55'0 0.2
2014-Nov-20 12:14N 60°09' E 024°55'1317.8
2014-Nov-20 11:29N 59°56' E 024°53'1819.6
2014-Nov-20 10:33N 59°38' E 024°42'1111.5
2014-Nov-20 09:33N 59°27' E 024°46'4 3.5
2014-Nov-20 08:33N 59°30' E 024°44'2120.4
2014-Nov-20 07:33N 59°51' E 024°50'8 0.6
2014-Nov-19 18:20N 59°43' E 024°47'1621.0
2014-Nov-19 17:34N 59°27' E 024°46'0 0.4
2014-Nov-19 16:31N 59°27' E 024°46'1212.1
2014-Nov-19 15:33N 59°38' E 024°40'1816.1
2014-Nov-19 14:28N 59°54' E 024°52'13 5.7
2014-Nov-19 12:09N 60°08' E 024°54'3119.7
2014-Nov-19 10:34N 59°37' E 024°41'1110.0
2014-Nov-19 09:30N 59°27' E 024°46'3 3.3
2014-Nov-19 08:33N 59°30' E 024°45'2019.6
2014-Nov-19 07:33N 59°49' E 024°46'2019.4
2014-Nov-19 06:33N 60°08' E 024°54'5 0.4
2014-Nov-18 19:13N 60°04' E 024°54'1623.8
2014-Nov-18 18:33N 59°48' E 024°49'2121.4
2014-Nov-18 17:33N 59°27' E 024°46'0 0.3
2014-Nov-18 16:31N 59°27' E 024°46'1111.4
2014-Nov-18 15:33N 59°37' E 024°40'1716.6
2014-Nov-18 14:33N 59°53' E 024°52'1615.4
2014-Nov-18 13:30N 60°09' E 024°55'0 0.0
2014-Nov-18 12:19N 60°09' E 024°55'3419.7
2014-Nov-18 10:33N 59°35' E 024°42'8 8.4
2014-Nov-18 09:33N 59°27' E 024°46'3 3.3
2014-Nov-18 08:33N 59°30' E 024°45'1818.5
2014-Nov-18 07:34N 59°48' E 024°50'4 0.3
2014-Nov-17 18:33N 59°46' E 024°45'1919.5
2014-Nov-17 17:33N 59°27' E 024°46'0 0.0
2014-Nov-17 16:32N 59°27' E 024°46'1111.2
2014-Nov-17 15:33N 59°37' E 024°40'1817.3
2014-Nov-17 14:30N 59°54' E 024°52'13 5.4
2014-Nov-17 12:07N 60°07' E 024°54'3321.0
2014-Nov-17 10:34N 59°36' E 024°41'9 9.1
2014-Nov-17 09:33N 59°27' E 024°46'2 2.0
2014-Nov-17 08:33N 59°29' E 024°46'2019.6
2014-Nov-17 07:33N 59°48' E 024°45'13 1.0
2014-Nov-16 19:04N 60°00' E 024°54'1625.3
2014-Nov-16 18:26N 59°44' E 024°47'  

Dump ship's entire track history